[[{"header":{"parameterUnit":"m.s-1","parameterCategory":1,"la1":30.2991,"la2":30.254,"lo1":-89.0895,"lo2":-89.0444,"dy":0.0017,"dx":0.0017,"nx":28,"ny":28,"refTime":"2025-09-19T09:00:00:Z","depth":0,"parameterNumber":2,"parameterNumberName":"U-component_of_WINDS"},"data":[0,0,0,0,0,0,0,0,0,0,0,0,0,0,0,0,0,0,0,0,0,0,0,0,0,0,0,0,0,0,0,0,0,0,0,0,0,0,0,0,0,0,0,0,0,0,0,0,0,0,0,0,0,0,0,0,0,0,0.4559,0.4559,0,0.4552,0.4552,0.4552,0.4535,0.4534,0.4534,0.4534,0.4527,0.4527,0.4527,0,0,0,0,0,0,0,0,0,0,0,0,0,0.4557,0.4557,0.4559,0.4559,0.4559,0.4552,0.4552,0.4552,0.4535,0.4534,0.4534,0.4534,0.4527,0.4527,0.4527,0,0,0,0,0,0,0,0,0,0,0,0,0,0.4555,0.4557,0.4559,0.4549,0.4548,0.4552,0.4552,0.4552,0.4535,0.4534,0.4534,0.4533,0.4527,0.4527,0.4527,0.4539,0,0,0.4528,0.4528,0,0,0,0,0,0,0,0,0.4555,0.4555,0.4551,0.455,0.4549,0.4544,0.4548,0.4547,0.4535,0.454,0.4534,0.4533,0.4533,0.4532,0.4532,0.4539,0.4538,0.4528,0.4528,0.4528,0.4528,0,0,0,0,0,0,0,0.4555,0.4555,0.4556,0.4551,0.455,0.4545,0.4544,0.4548,0.4539,0.454,0.4538,0.4538,0.4532,0.4532,0.4532,0.4538,0.4528,0.4528,0.4528,0.4528,0.4553,0.4554,0,0,0,0,0,0,0.4556,0.4555,0.4556,0.4556,0.4551,0.4546,0.4545,0.4546,0.4539,0.4538,0.4538,0.4537,0.4532,0.4532,0.4532,0.4545,0.4528,0.4528,0.4528,0.4553,0.4553,0.4554,0,0,0,0,0,0,0.4557,0.4557,0.4556,0.4555,0.4555,0.4546,0.4548,0.4546,0.4546,0.4538,0.4537,0.454,0.4532,0.4531,0.4537,0.4544,0.4528,0.4528,0.4552,0.4553,0.4554,0.4571,0,0,0,0,0,0,0.4557,0.4557,0.4561,0.4555,0.4555,0.4562,0.4548,0.4546,0.4546,0.4545,0.4539,0.4538,0.4531,0.4537,0.4537,0.4544,0.4529,0.4551,0.4552,0.4553,0.457,0.4572,0.4574,0,0,0,0,0,0.4557,0.4567,0.4562,0.4562,0.456,0.4563,0.4562,0.4554,0.4547,0.4551,0.4546,0.4538,0.4543,0.4538,0.4538,0.4545,0.4551,0.4552,0.4553,0.4569,0.4572,0.4574,0,0,0,0,0,0,0.4574,0.4566,0.456,0.4569,0.4566,0.456,0.4565,0.4558,0.4558,0.4556,0.4546,0.4545,0.4552,0.4549,0.4543,0.4556,0.4546,0.4547,0.4557,0.456,0.4562,0.4563,0.4529,0,0,0,0,0,0.4579,0.4581,0.4574,0.4582,0.4581,0.4574,0.4574,0.4568,0.4565,0.4564,0.456,0.4557,0.4558,0.4559,0.456,0.4569,0.4568,0.4574,0.4577,0.4579,0.458,0.4584,0.4586,0.4558,0.4558,0.4558,0,0,0.4589,0.4585,0.4587,0.4586,0.4583,0.4586,0.4573,0.4576,0.4578,0.4565,0.457,0.4566,0.4563,0.457,0.4573,0.4568,0.4587,0.458,0.4582,0.4582,0.4585,0.4588,0.459,0.4559,0.4559,0.4558,0,0,0.4608,0.4606,0.4612,0.461,0.4606,0.46,0.4602,0.4596,0.4593,0.4598,0.4588,0.459,0.4592,0.459,0.4589,0.4607,0.4599,0.4608,0.462,0.4624,0.4626,0.4628,0.4634,0.4636,0.4609,0.4609,0.4609,0,0.4621,0.4625,0.4616,0.462,0.4619,0.4608,0.4613,0.4612,0.4608,0.4608,0.4603,0.4604,0.4602,0.4608,0.4612,0.4612,0.4613,0.4608,0.4627,0.4628,0.463,0.4635,0.4638,0.461,0.461,0.461,0.461,0,0.464,0.4643,0.4648,0.4645,0.4645,0.465,0.4642,0.4643,0.4637,0.4632,0.4637,0.4633,0.4632,0.4633,0.4628,0.4639,0.4635,0.4628,0.4618,0.4634,0.4639,0.4641,0.4612,0.4611,0.4611,0.4611,0,0,0.467,0.4662,0.4664,0.4662,0.4657,0.4659,0.4663,0.4662,0.4663,0.4661,0.4664,0.4666,0.4659,0.4658,0.4652,0.4656,0.4669,0.4648,0.4648,0.4652,0.4681,0.4685,0.4688,0.4665,0.4665,0.4665,0.4681,0,0.4687,0.4694,0.4686,0.4694,0.4696,0.4685,0.4689,0.4686,0.4681,0.4682,0.4677,0.4679,0.467,0.4669,0.4672,0.4667,0.4675,0.4666,0.4667,0.4667,0.4667,0.469,0.4696,0.471,0.4682,0.4683,0.4683,0,0.4709,0.4708,0.4716,0.471,0.471,0.4714,0.4712,0.4713,0.4709,0.4706,0.4705,0.4697,0.4701,0.4691,0.4695,0.4689,0.4689,0.4686,0.4687,0.4686,0.4675,0.4689,0.4715,0.4717,0.4686,0.4686,0.4686,0,0.4729,0.4729,0.4734,0.4733,0.4726,0.4729,0.4726,0.4722,0.4722,0.472,0.472,0.4719,0.4718,0.4717,0.471,0.4704,0.4715,0.4705,0.4711,0.4711,0.4713,0.4713,0.4738,0.4715,0.4715,0.4715,0.4715,0,0.4748,0.4754,0.4743,0.4746,0.4751,0.4742,0.4748,0.4744,0.474,0.4742,0.4733,0.4734,0.4725,0.4725,0.4719,0.4723,0.4723,0.472,0.4718,0.472,0.4721,0.472,0.4718,0.4715,0.4715,0.4715,0.4715,0,0.4771,0.4764,0.4768,0.4762,0.476,0.4764,0.4758,0.4761,0.4755,0.4758,0.4758,0.475,0.475,0.4743,0.4741,0.4737,0.4744,0.474,0.4745,0.4743,0.475,0.4749,0.4775,0.4777,0.4753,0.4753,0.4753,0,0.4784,0.4788,0.4781,0.4781,0.4779,0.478,0.478,0.4771,0.4771,0.4767,0.477,0.4769,0.4768,0.4769,0.4763,0.4762,0.4758,0.4767,0.4758,0.476,0.4757,0.4757,0.4757,0.4769,0.4769,0.4769,0.477,0,0.4807,0.4803,0.4803,0.4801,0.4801,0.4799,0.4797,0.4798,0.4789,0.4789,0.4789,0.4788,0.4787,0.4786,0.4784,0.4781,0.4773,0.4773,0.4774,0.4776,0.4778,0.4776,0.4749,0.4772,0.4772,0.4771,0.4771,0.4771,0.4824,0.4827,0.4823,0.4822,0.482,0.4818,0.4819,0.4814,0.4814,0.4812,0.4807,0.4808,0.4804,0.48,0.4798,0.4798,0.4793,0.4796,0.4796,0.4796,0.4797,0.4778,0.4798,0.4798,0.4797,0.4797,0.4797,0,0.4846,0.4843,0.4843,0.484,0.484,0.4833,0.483,0.483,0.4831,0.4828,0.4827,0.4827,0.4826,0.482,0.4818,0.4819,0.4816,0.4819,0.4819,0.4818,0.4802,0.48,0.4822,0.4822,0.4822,0.4822,0.4822,0.4822,0.4857,0.4861,0.4857,0.4859,0.4855,0.4856,0.4855,0.4853,0.485,0.485,0.4849,0.4845,0.4841,0.4839,0.4838,0.4836,0.4835,0.484,0.4837,0.4822,0.4819,0.4817,0.4815,0.484,0.484,0.4853,0.4853,0.4853]},{"header":{"parameterUnit":"m.s-1","parameterCategory":1,"la1":30.2991,"la2":30.254,"lo1":-89.0895,"lo2":-89.0444,"dy":0.0017,"dx":0.0017,"nx":28,"ny":28,"refTime":"2025-09-19T09:00:00:Z","depth":0,"parameterNumber":3,"parameterNumberName":"V-component_of_WINDS"},"data":[0,0,0,0,0,0,0,0,0,0,0,0,0,0,0,0,0,0,0,0,0,0,0,0,0,0,0,0,0,0,0,0,0,0,0,0,0,0,0,0,0,0,0,0,0,0,0,0,0,0,0,0,0,0,0,0,0,0,-0.4319,-0.4319,0,-0.4289,-0.4288,-0.4288,-0.4328,-0.433,-0.4331,-0.4332,-0.4301,-0.4299,-0.4297,0,0,0,0,0,0,0,0,0,0,0,0,0,-0.4412,-0.441,-0.4319,-0.4319,-0.4318,-0.4289,-0.4288,-0.4288,-0.4328,-0.433,-0.4331,-0.4333,-0.4302,-0.4299,-0.4297,0,0,0,0,0,0,0,0,0,0,0,0,0,-0.4376,-0.4409,-0.4319,-0.4335,-0.4336,-0.4289,-0.4288,-0.4288,-0.4327,-0.433,-0.4332,-0.4334,-0.4303,-0.43,-0.4296,-0.4233,0,0,-0.4286,-0.4285,0,0,0,0,0,0,0,0,-0.4378,-0.4372,-0.4333,-0.4334,-0.4335,-0.4314,-0.431,-0.4269,-0.4327,-0.4331,-0.4332,-0.4335,-0.4304,-0.4301,-0.429,-0.4231,-0.423,-0.4286,-0.4284,-0.4283,-0.4282,0,0,0,0,0,0,0,-0.438,-0.4374,-0.4307,-0.4332,-0.4333,-0.4343,-0.4341,-0.4302,-0.4305,-0.433,-0.4333,-0.4329,-0.4305,-0.4293,-0.429,-0.423,-0.4286,-0.4283,-0.4281,-0.428,-0.4117,-0.4115,0,0,0,0,0,0,-0.4381,-0.4376,-0.4308,-0.4306,-0.4362,-0.434,-0.4337,-0.4319,-0.4306,-0.4306,-0.4327,-0.4331,-0.4298,-0.4293,-0.4289,-0.4213,-0.4283,-0.428,-0.4278,-0.4119,-0.4116,-0.4114,0,0,0,0,0,0,-0.4383,-0.4374,-0.4309,-0.4342,-0.4334,-0.4336,-0.4315,-0.4317,-0.4305,-0.4304,-0.4304,-0.4315,-0.4299,-0.4293,-0.4246,-0.4212,-0.4278,-0.4275,-0.4122,-0.4118,-0.4115,-0.4061,0,0,0,0,0,0,-0.4385,-0.4375,-0.435,-0.4341,-0.4332,-0.4267,-0.4313,-0.4315,-0.43,-0.4304,-0.4292,-0.4292,-0.43,-0.4251,-0.4243,-0.4209,-0.4273,-0.4125,-0.4121,-0.4116,-0.4066,-0.4056,-0.4048,0,0,0,0,0,-0.4388,-0.4337,-0.4349,-0.4341,-0.4302,-0.4265,-0.426,-0.4271,-0.4297,-0.4272,-0.4271,-0.4293,-0.4218,-0.4246,-0.4237,-0.4202,-0.4127,-0.4122,-0.4117,-0.407,-0.4058,-0.4048,0,0,0,0,0,0,-0.4342,-0.4336,-0.4349,-0.4293,-0.4279,-0.4272,-0.4241,-0.4258,-0.4237,-0.4242,-0.4256,-0.4253,-0.4203,-0.4198,-0.4229,-0.414,-0.4177,-0.417,-0.4144,-0.4133,-0.4124,-0.4126,-0.427,0,0,0,0,0,-0.4325,-0.4296,-0.4292,-0.4243,-0.4235,-0.4239,-0.4224,-0.4233,-0.422,-0.4214,-0.4209,-0.4195,-0.4169,-0.4151,-0.4126,-0.4066,-0.4064,-0.4038,-0.4029,-0.4021,-0.4014,-0.3981,-0.397,-0.4096,-0.4096,-0.4097,0,0,-0.429,-0.4283,-0.4264,-0.4233,-0.4224,-0.4193,-0.4234,-0.42,-0.4177,-0.4209,-0.4164,-0.416,-0.4146,-0.4091,-0.4067,-0.4086,-0.3979,-0.4014,-0.4008,-0.4005,-0.3975,-0.3963,-0.3952,-0.4093,-0.4093,-0.4094,0,0,-0.421,-0.4202,-0.416,-0.415,-0.4135,-0.4138,-0.4128,-0.4118,-0.4117,-0.4072,-0.4096,-0.4069,-0.4023,-0.4011,-0.4,-0.3916,-0.3935,-0.3908,-0.386,-0.3828,-0.3818,-0.3809,-0.3779,-0.3767,-0.3901,-0.3901,-0.3901,0,-0.4169,-0.4123,-0.4136,-0.41,-0.4086,-0.4114,-0.4071,-0.406,-0.4038,-0.4028,-0.4049,-0.3992,-0.3984,-0.3927,-0.3907,-0.3897,-0.3885,-0.3909,-0.3818,-0.381,-0.3802,-0.3773,-0.3761,-0.3898,-0.3898,-0.3899,-0.3899,0,-0.4072,-0.404,-0.4008,-0.3985,-0.3968,-0.3928,-0.3936,-0.3916,-0.3928,-0.3929,-0.3883,-0.3875,-0.3849,-0.3837,-0.3847,-0.3781,-0.3793,-0.3816,-0.3854,-0.3786,-0.3759,-0.3748,-0.3893,-0.3895,-0.3895,-0.3896,0,0,-0.3961,-0.3947,-0.3935,-0.3925,-0.3911,-0.3887,-0.3849,-0.3824,-0.3806,-0.3791,-0.3759,-0.372,-0.3741,-0.3727,-0.3737,-0.3709,-0.3643,-0.3736,-0.3736,-0.3718,-0.3569,-0.3551,-0.3538,-0.3656,-0.3654,-0.3652,-0.357,0,-0.388,-0.3814,-0.3825,-0.3761,-0.3732,-0.3758,-0.3726,-0.3713,-0.3714,-0.3689,-0.369,-0.3661,-0.3692,-0.3684,-0.3657,-0.3656,-0.3613,-0.3663,-0.3626,-0.3624,-0.3627,-0.3524,-0.3504,-0.3427,-0.3559,-0.3558,-0.3556,0,-0.3777,-0.3757,-0.369,-0.3681,-0.3669,-0.3639,-0.3617,-0.3593,-0.358,-0.3582,-0.3567,-0.3582,-0.3545,-0.3584,-0.3532,-0.3566,-0.3552,-0.3549,-0.3546,-0.3542,-0.3585,-0.3515,-0.3402,-0.339,-0.354,-0.3541,-0.3542,0,-0.3701,-0.3658,-0.3612,-0.3603,-0.3591,-0.357,-0.3564,-0.3553,-0.3537,-0.3518,-0.3508,-0.3485,-0.3472,-0.3453,-0.3462,-0.349,-0.3408,-0.3448,-0.3409,-0.3408,-0.3389,-0.339,-0.3271,-0.3382,-0.3382,-0.3382,-0.3383,0,-0.3609,-0.3567,-0.3578,-0.3549,-0.3503,-0.3517,-0.347,-0.3468,-0.3458,-0.343,-0.3452,-0.3425,-0.3439,-0.3413,-0.342,-0.3375,-0.3369,-0.337,-0.3372,-0.3367,-0.3367,-0.3357,-0.3362,-0.3379,-0.338,-0.3381,-0.3381,0,-0.3516,-0.3522,-0.3473,-0.3467,-0.3464,-0.343,-0.3424,-0.3398,-0.34,-0.3364,-0.3356,-0.336,-0.3331,-0.3338,-0.3306,-0.3311,-0.3254,-0.3264,-0.3258,-0.326,-0.322,-0.3223,-0.3089,-0.3072,-0.3195,-0.3194,-0.3193,0,-0.3456,-0.3424,-0.3414,-0.3396,-0.3389,-0.3361,-0.3345,-0.3357,-0.334,-0.3323,-0.3298,-0.3271,-0.325,-0.3202,-0.3201,-0.3177,-0.3185,-0.314,-0.3182,-0.3178,-0.3183,-0.3185,-0.3181,-0.3131,-0.313,-0.3129,-0.3128,0,-0.3349,-0.3353,-0.3329,-0.3306,-0.3286,-0.3269,-0.3253,-0.3238,-0.325,-0.3229,-0.3199,-0.3182,-0.315,-0.3122,-0.31,-0.3094,-0.3112,-0.3115,-0.3105,-0.3099,-0.3096,-0.3096,-0.3235,-0.3118,-0.3119,-0.312,-0.312,-0.3121,-0.3269,-0.3242,-0.3231,-0.3203,-0.3193,-0.3178,-0.3153,-0.3153,-0.3128,-0.3102,-0.3112,-0.3077,-0.3066,-0.3038,-0.3029,-0.3003,-0.302,-0.3005,-0.3001,-0.2996,-0.2991,-0.3102,-0.2999,-0.2999,-0.3,-0.3,-0.3,0,-0.3163,-0.3157,-0.3131,-0.3109,-0.3087,-0.3107,-0.3092,-0.3072,-0.3042,-0.3029,-0.3008,-0.2974,-0.2947,-0.2945,-0.292,-0.29,-0.2907,-0.2892,-0.2894,-0.2892,-0.2977,-0.2989,-0.2887,-0.2887,-0.2887,-0.2887,-0.2887,-0.2887,-0.3104,-0.3059,-0.3062,-0.3012,-0.3007,-0.2974,-0.2963,-0.2949,-0.2939,-0.29,-0.2878,-0.2877,-0.2869,-0.2844,-0.282,-0.2821,-0.281,-0.2792,-0.2795,-0.2875,-0.2886,-0.2897,-0.2907,-0.279,-0.2789,-0.2711,-0.2711,-0.271]}]]